Location: Carlyle Estates
(43.1097°N, 73.7239°W)
Time: 05:27:35
(UTC+00:00)

Daily predictions for brighter satellites

Satellite Brightness Start Highest point End
(mag) Time Altitude Azimuth Time Altitude Azimuth Time Altitude Azimuth
ISS -0.8 00:01:16 10° WNW 00:02:03 16° WNW 00:02:03 16° WNW
SL-16 R/B 3.2 00:01:46 10° NNW 00:05:04 36° N 00:05:04 36° N
USA 267 4.4 00:07:36 27° N 00:08:52 29° NNW 00:14:17 10° WNW
Cosmos 2082 Rocket 3.8 00:04:13 10° WSW 00:09:08 30° NW 00:11:58 20° N
ATLAS 5 CENTAUR R/B 4.1 00:06:07 10° NW 00:08:17 21° NW 00:08:17 21° NW
CZ-2C R/B 4.3 00:19:31 10° SW 00:19:38 10° SW 00:19:38 10° SW
Lacrosse 5 rocket 4.2 00:18:37 10° NW 00:18:55 12° NW 00:18:55 12° NW
CENTAUR R/B 3.4 08:51:34 44° NE 08:51:34 44° NE 08:56:14 10° NE
Cosmos 1943 Rocket 3.8 08:53:41 27° NE 08:53:41 27° NE 08:56:15 10° NNE
NOSS 3-2 (A) 4.5 09:06:29 35° NNE 09:06:29 35° NNE 09:10:15 10° NNE
NOSS 3-2 (C) 3.7 09:13:26 59° NE 09:13:26 59° NE 09:18:35 10° NE
Cosmos 2344 3.6 09:14:06 58° NNW 09:14:06 58° NNW 09:20:56 10° NNE
Cosmos 1812 4.5 09:28:44 31° E 09:28:44 31° E 09:32:01 10° SE
Tsikada Rocket 3.8 09:27:20 10° S 09:33:32 85° W 09:39:52 10° N
SL-8 R/B 4.3 09:39:49 49° NNE 09:39:49 49° NNE 09:44:07 10° E
Meteor 2-3 Rocket 3.7 09:40:23 68° NNW 09:40:23 68° NNW 09:45:34 10° N
USA 238 DEB 3.5 09:40:07 61° NW 09:40:16 61° NW 09:47:04 10° NNE
USA 238 3.5 09:40:11 61° WNW 09:40:22 61° NW 09:47:10 10° NNE
BREEZE-M DEB (TANK) 3.0 09:43:04 75° W 09:43:27 83° SSW 09:55:51 10° ESE
SKYMED 2 4.5 09:40:37 10° SE 09:44:45 46° ENE 09:46:55 25° NNE
USA 215 3.7 09:41:23 10° ESE 09:47:41 53° NNE 09:50:34 32° NNW
Cosmos 1241 Rocket 4.3 09:49:45 59° W 09:50:26 62° WSW 09:56:31 10° SSE
Meteor 1-31 Rocket 3.9 09:47:57 10° NNE 09:51:42 43° E 09:55:25 10° S
Cosmos 921 Rocket 2.9 09:53:48 88° NNW 09:53:51 90° W 09:58:19 10° SSE
Cosmos 1782 4.5 09:57:34 23° S 09:57:34 23° S 09:59:07 10° S
Meteor 1-26 Rocket 4.2 09:56:03 38° NNW 09:58:18 65° W 10:03:57 10° S
Cosmos 2263 4.3 09:53:12 10° SSW 09:58:51 75° ESE 10:04:35 10° NNE
H-2A R/B 2.7 09:55:48 10° NNE 09:59:37 77° ESE 10:03:17 10° S
Cosmos 2208 Rocket 4.5 10:02:49 42° SW 10:02:49 42° SW 10:07:10 10° S
Cosmos 1867 4.3 10:03:11 35° SW 10:03:11 35° SW 10:07:21 10° S
Cosmos 1862 3.7 09:58:55 10° S 10:02:48 63° E 10:06:43 10° NNE
Okean 3 Rocket 4.0 10:00:29 10° S 10:04:56 64° E 10:09:27 10° NNE
Cosmos 1151 Rocket 3.0 10:05:51 27° N 10:08:16 85° E 10:12:38 10° S
Cosmos 1503 Rocket 4.4 10:03:45 10° S 10:08:56 64° ESE 10:14:13 10° NNE
Cosmos 2369 Rocket 2.0 10:05:54 20° SW 10:09:51 66° WNW 10:15:27 10° NNE
SL-19 R/B 4.2 10:07:00 10° S 10:12:33 64° WSW 10:16:12 22° NNW
SJ-12 3.8 10:09:05 10° N 10:13:13 73° WNW 10:17:20 10° SSW
Cosmos 1766 Rocket 3.4 10:09:40 10° S 10:14:00 89° ENE 10:18:21 10° N
Meteor 2-13 Rocket 4.4 10:08:33 10° SSW 10:14:34 61° W 10:20:37 10° N
Cosmos 1486 Rocket 3.9 10:11:04 10° SSW 10:16:19 65° WNW 10:21:35 10° NNE
BREEZE M DEB (TANK) 3.7 10:21:35 30° NNW 10:21:40 30° NNW 10:24:01 10° NE
Cosmos 1328 Rocket 3.5 10:20:36 11° N 10:24:45 89° ENE 10:29:06 10° S
Cosmos 1656 Rocket 3.5 10:20:55 10° SSW 10:26:17 67° WNW 10:31:43 10° NNE
Iridium 2 3.8 10:23:11 10° SSW 10:32:34 - N 10:26:47 47° W
CZ-4B R/B 4.4 10:24:13 10° NNE 10:27:29 33° E 10:30:46 10° SSE
DNEPR-1 R/B 3.9 10:27:07 26° NW 10:29:59 85° SW 10:35:50 10° SSE
COSMO-SKYMED 1 2.7 10:28:34 10° S 10:32:47 52° W 10:35:30 21° NNW
CZ-2C R/B 2.7 10:28:51 10° S 10:34:15 57° W 10:39:34 10° NNW
Cosmos 1943 Rocket 3.4 10:35:16 22° NW 10:35:16 22° NW 10:39:13 10° N
Envisat 3.2 10:34:46 10° N 10:39:37 46° WNW 10:44:26 10° SW
CENTAUR R/B 3.5 10:38:46 23° WNW 10:40:56 27° NNW 10:47:00 10° NNE
Cosmos 968 Rocket 4.5 10:45:20 23° WNW 10:45:38 23° WNW 10:49:42 10° N
Cosmos 2098 Rocket 3.6 10:42:37 10° SW 10:46:12 33° WNW 10:50:38 10° N
Cosmos 1408 Rocket 3.4 10:43:54 10° S 10:48:12 84° W 10:52:31 10° N
DELTA 2 R/B (1) 4.0 10:47:14 14° WSW 10:51:52 58° S 10:57:19 10° E
Cosmos 1340 Rocket 3.5 10:49:45 10° S 10:53:36 56° E 10:57:31 10° NNE
Cosmos 2279 Rocket 4.2 10:47:52 10° NNW 10:53:47 48° W 10:59:40 10° SSW
Cosmos 1174 4.1 10:52:54 10° SSW 10:55:46 48° ESE 10:58:45 10° NE
SMAP 4.2 10:51:39 10° NNE 10:56:09 47° E 11:00:37 10° S
Cosmos 1743 Rocket 4.1 10:52:13 10° S 10:56:32 63° E 11:00:52 10° NNE
NOAA 11 4.1 10:55:03 10° N 11:00:29 69° WNW 11:05:56 10° SSW
Meteor 1-27 Rocket 3.8 10:56:40 10° N 11:02:21 90° WSW 11:08:06 10° S
Nadezhda 4 Rocket 3.9 10:56:16 10° S 11:02:26 81° W 11:08:42 10° N
CZ-4B R/B 3.2 11:00:38 10° SE 11:03:37 31° ENE 11:06:35 10° N
Cosmos 1812 4.2 11:03:50 17° W 11:04:03 17° W 11:06:37 10° SW
DMSP B5D1-3 4.5 10:59:25 10° S 11:04:34 76° WSW 11:09:45 10° NNW
Meteor 2-15 Rocket 4.4 10:58:51 10° N 11:04:57 77° W 11:10:59 10° S
Cosmos 1515 Rocket 3.6 11:02:15 10° NNW 11:06:33 59° W 11:10:48 10° S
Cosmos 1939 Rocket 3.0 11:03:07 10° NNE 11:07:03 76° ESE 11:10:55 10° S
ATLAS 3B R/B 3.0 11:02:08 10° SSW 11:08:34 69° ESE 11:15:19 10° NE
Cosmos 1354 Rocket 4.3 11:04:50 10° SW 11:09:53 46° WNW 11:15:00 10° N
SJ 16-02 1.3 11:06:22 10° SSW 11:10:45 84° WNW 11:15:09 10° NNE
Meteor PRIRODA 3.6 11:07:28 10° N 11:11:02 54° WNW 11:14:34 10° SSW
ADEOS 3.8 11:08:47 10° N 11:13:46 46° WNW 11:18:43 10° SW
Cosmos 1515 4.2 11:10:04 10° N 11:13:51 63° E 11:17:37 10° SSE
Cosmos 1092 Rocket 4.2 11:11:50 10° S 11:18:03 79° E 11:24:23 10° N
CZ-4C R/B 4.2 11:17:50 10° SW 11:20:10 19° W 11:22:17 11° NW
SL-8 R/B 3.9 11:17:47 12° WNW 11:22:09 65° SSW 11:26:52 10° SE
ATLAS 5 CENTAUR R/B 1.2 11:18:46 10° SW 11:22:33 74° NW 11:26:48 10° NNE
Cosmos 1500 Rocket 3.6 11:20:35 10° SSW 11:24:58 59° W 11:29:24 10° N
Meteor 1-31 Rocket 4.4 11:23:23 10° NNW 11:25:42 15° WNW 11:28:02 10° WSW
CZ-2C R/B 3.1 11:21:49 10° N 11:26:31 49° WNW 11:31:24 10° SW
Okean 1 4.2 11:24:50 10° N 11:28:42 51° E 11:32:33 10° SSE
Geosat FO 4.4 11:25:34 10° SSE 11:28:52 64° WSW 11:32:10 10° NNW
USA 215 3.6 11:24:20 10° SSE 11:30:41 53° SW 11:37:03 10° WNW
Meteor 1-25 Rocket 4.3 11:26:07 10° S 11:31:45 90° W 11:37:22 10° N
COSMOS 2487 2.4 11:31:06 10° NNW 11:34:28 81° ENE 11:37:48 10° SSE
Sich 1 3.2 11:31:09 10° S 11:35:26 81° E 11:39:44 10° N
Cosmos 1805 Rocket 3.5 11:32:25 10° SSW 11:36:49 77° W 11:41:12 10° N
Alouette 2 Rocket 3.3 11:33:38 10° NNW 11:37:18 57° W 11:40:50 10° S
H-2A R/B 2.4 11:34:19 10° S 11:38:22 45° W 11:42:34 10° NNW
Cosmos 1538 Rocket 4.0 11:34:29 10° NNW 11:39:45 83° WSW 11:44:55 10° SSE
